When you browse on this site, cookies collect data to enhance your experience and personalize the content and advertising you see.
Visit our Privacy Policy to learn more. By continuing to use the site, you agree to this use of cookies and data.
  • en Suisse
  • Liste des pays
  • À 7 jours
  • Température de l'eau
  • Carte météo
  • Widgets météo
  • user-avatar
    Se connecter

    Météo par heure à Marbella

    Ce jour, 28 Janvier, Mardi

    Heure Température Précipitation Vent Pression Humidité
    00:00 +11°C° 0 mm 3 m/s 764 mmHg 84%
    01:00 +11°C° 0 mm 3 m/s 763 mmHg 84%
    02:00 +11°C° 0 mm 3 m/s 763 mmHg 83%
    03:00 +11°C° 0 mm 3 m/s 763 mmHg 83%
    04:00 +11°C° 0 mm 3 m/s 763 mmHg 84%
    05:00 +11°C° 0 mm 3 m/s 763 mmHg 84%
    06:00 +11°C° 0 mm 3 m/s 763 mmHg 86%
    07:00 +12°C° 0 mm 3 m/s 763 mmHg 84%
    08:00 +14°C° 0 mm 2 m/s 763 mmHg 82%
    09:00 +15°C° 0 mm 2 m/s 763 mmHg 80%
    10:00 +16°C° 0 mm 2 m/s 763 mmHg 75%
    11:00 +18°C° 0 mm 2 m/s 764 mmHg 69%
    12:00 +19°C° 0 mm 3 m/s 764 mmHg 64%
    13:00 +20°C° 0 mm 3 m/s 763 mmHg 65%
    14:00 +20°C° 0 mm 3 m/s 762 mmHg 65%
    15:00 +20°C° 0 mm 3 m/s 762 mmHg 65%
    16:00 +19°C° 0 mm 3 m/s 762 mmHg 72%
    17:00 +17°C° 0 mm 3 m/s 762 mmHg 78%
    18:00 +16°C° 0 mm 2 m/s 762 mmHg 85%
    19:00 +15°C° 0 mm 2 m/s 762 mmHg 84%
    20:00 +15°C° 0 mm 2 m/s 762 mmHg 83%
    21:00 +14°C° 0 mm 2 m/s 762 mmHg 82%
    22:00 +14°C° 0 mm 2 m/s 763 mmHg 81%
    23:00 +14°C° 0 mm 2 m/s 763 mmHg 79%

    Demain, 29 Janvier, Mercredi

    Heure Température Précipitation Vent Pression Humidité
    00:00 +14°C° 0 mm 2 m/s 763 mmHg 78%
    01:00 +14°C° 0 mm 2 m/s 762 mmHg 77%
    02:00 +14°C° 0 mm 2 m/s 762 mmHg 77%
    03:00 +14°C° 0 mm 2 m/s 762 mmHg 76%
    04:00 +14°C° 0 mm 2 m/s 762 mmHg 76%
    05:00 +14°C° 0 mm 2 m/s 762 mmHg 75%
    06:00 +14°C° 0 mm 2 m/s 762 mmHg 75%
    07:00 +14°C° 0 mm 2 m/s 762 mmHg 74%
    08:00 +15°C° 0 mm 2 m/s 762 mmHg 72%
    09:00 +16°C° 0 mm 1 m/s 762 mmHg 70%
    10:00 +19°C° 0 mm 1 m/s 763 mmHg 65%
    11:00 +20°C° 0 mm 1 m/s 763 mmHg 60%
    12:00 +21°C° 0 mm 1 m/s 763 mmHg 54%
    13:00 +21°C° 0 mm 2 m/s 762 mmHg 54%
    14:00 +21°C° 0 mm 2 m/s 762 mmHg 54%
    15:00 +21°C° 0 mm 2 m/s 761 mmHg 55%
    16:00 +20°C° 0 mm 2 m/s 761 mmHg 61%
    17:00 +18°C° 0 mm 2 m/s 761 mmHg 68%
    18:00 +17°C° 0 mm 2 m/s 762 mmHg 75%
    19:00 +16°C° 0 mm 2 m/s 762 mmHg 74%
    20:00 +16°C° 0 mm 2 m/s 762 mmHg 73%
    21:00 +15°C° 0 mm 2 m/s 762 mmHg 72%
    22:00 +15°C° 0 mm 2 m/s 762 mmHg 67%
    23:00 +15°C° 0 mm 2 m/s 763 mmHg 62%

    Après-demain, 30 Janvier, Jeudi

    Heure Température Précipitation Vent Pression Humidité
    00:00 +15°C° 0 mm 2 m/s 763 mmHg 56%
    01:00 +15°C° 0 mm 2 m/s 763 mmHg 53%
    02:00 +15°C° 0 mm 2 m/s 762 mmHg 50%
    03:00 +15°C° 0 mm 2 m/s 762 mmHg 46%
    04:00 +13°C° 0 mm 3 m/s 762 mmHg 46%
    05:00 +13°C° 0 mm 3 m/s 762 mmHg 45%
    06:00 +13°C° 0 mm 3 m/s 762 mmHg 44%
    07:00 +13°C° 0 mm 3 m/s 762 mmHg 45%
    08:00 +14°C° 0 mm 3 m/s 763 mmHg 46%
    09:00 +16°C° 0 mm 3 m/s 763 mmHg 48%
    10:00 +18°C° 0 mm 3 m/s 763 mmHg 44%
    11:00 +19°C° 0 mm 3 m/s 763 mmHg 40%
    12:00 +21°C° 0 mm 3 m/s 763 mmHg 36%
    13:00 +21°C° 0 mm 3 m/s 763 mmHg 36%
    14:00 +21°C° 0 mm 3 m/s 762 mmHg 37%
    15:00 +22°C° 0 mm 4 m/s 762 mmHg 38%
    16:00 +20°C° 0 mm 3 m/s 762 mmHg 45%
    17:00 +18°C° 0 mm 3 m/s 762 mmHg 53%
    18:00 +16°C° 0 mm 3 m/s 762 mmHg 60%
    19:00 +16°C° 0 mm 3 m/s 762 mmHg 59%
    20:00 +14°C° 0 mm 3 m/s 763 mmHg 59%
    21:00 +14°C° 0 mm 3 m/s 763 mmHg 59%
    22:00 +13°C° 0 mm 3 m/s 763 mmHg 58%
    23:00 +13°C° 0 mm 3 m/s 763 mmHg 57%

    31 Janvier, Vendredi

    Heure Température Précipitation Vent Pression Humidité
    00:00 +13°C° 0 mm 3 m/s 763 mmHg 57%
    01:00 +13°C° 0 mm 3 m/s 763 mmHg 56%
    02:00 +13°C° 0 mm 3 m/s 763 mmHg 56%
    03:00 +13°C° 0 mm 3 m/s 763 mmHg 56%
    04:00 +13°C° 0 mm 3 m/s 762 mmHg 55%
    05:00 +13°C° 0 mm 3 m/s 762 mmHg 55%
    06:00 +13°C° 0 mm 3 m/s 762 mmHg 54%
    07:00 +14°C° 0 mm 3 m/s 762 mmHg 55%
    08:00 +16°C° 0 mm 2 m/s 763 mmHg 56%
    09:00 +17°C° 0 mm 2 m/s 763 mmHg 56%
    10:00 +18°C° 0 mm 2 m/s 763 mmHg 52%
    11:00 +20°C° 0 mm 2 m/s 763 mmHg 48%
    12:00 +23°C° 0 mm 2 m/s 762 mmHg 44%
    13:00 +23°C° 0 mm 2 m/s 762 mmHg 46%
    14:00 +23°C° 0 mm 2 m/s 762 mmHg 47%
    15:00 +23°C° 0 mm 2 m/s 761 mmHg 49%
    16:00 +21°C° 0 mm 2 m/s 761 mmHg 56%
    17:00 +19°C° 0 mm 2 m/s 761 mmHg 62%
    18:00 +18°C° 0 mm 2 m/s 761 mmHg 69%
    19:00 +17°C° 0 mm 2 m/s 762 mmHg 67%
    20:00 +17°C° 0 mm 3 m/s 762 mmHg 66%
    21:00 +16°C° 0 mm 3 m/s 762 mmHg 65%
    22:00 +16°C° 0 mm 2 m/s 762 mmHg 61%
    23:00 +16°C° 0 mm 2 m/s 762 mmHg 57%

    1 Février, Samedi

    Heure Température Précipitation Vent Pression Humidité
    00:00 +16°C° 0 mm 2 m/s 762 mmHg 53%
    01:00 +16°C° 0 mm 2 m/s 762 mmHg 52%
    02:00 +16°C° 0 mm 2 m/s 762 mmHg 51%
    03:00 +15°C° 0 mm 2 m/s 762 mmHg 50%
    04:00 +15°C° 0 mm 2 m/s 762 mmHg 49%
    05:00 +16°C° 0 mm 2 m/s 762 mmHg 49%
    06:00 +16°C° 0 mm 2 m/s 762 mmHg 48%
    07:00 +16°C° 0 mm 2 m/s 762 mmHg 49%
    08:00 +17°C° 0 mm 2 m/s 762 mmHg 51%
    09:00 +18°C° 0 mm 2 m/s 763 mmHg 52%
    10:00 +19°C° 0 mm 2 m/s 763 mmHg 48%
    11:00 +22°C° 0 mm 1 m/s 763 mmHg 44%
    12:00 +23°C° 0 mm 1 m/s 763 mmHg 39%
    13:00 +24°C° 0 mm 1 m/s 763 mmHg 40%
    14:00 +24°C° 0 mm 1 m/s 762 mmHg 41%
    15:00 +24°C° 0 mm 1 m/s 762 mmHg 41%
    16:00 +22°C° 0 mm 1 m/s 762 mmHg 49%
    17:00 +21°C° 0 mm 1 m/s 762 mmHg 57%
    18:00 +19°C° 0 mm 1 m/s 762 mmHg 64%
    19:00 +18°C° 0 mm 1 m/s 762 mmHg 63%
    20:00 +18°C° 0 mm 1 m/s 762 mmHg 61%
    21:00 +18°C° 0 mm 1 m/s 763 mmHg 60%
    22:00 +18°C° 0 mm 1 m/s 763 mmHg 59%
    23:00 +16°C° 0 mm 1 m/s 763 mmHg 58%

    2 Février, Dimanche

    Heure Température Précipitation Vent Pression Humidité
    00:00 +16°C° 0 mm 1 m/s 763 mmHg 57%
    01:00 +16°C° 0 mm 1 m/s 763 mmHg 57%
    02:00 +16°C° 0 mm 1 m/s 763 mmHg 57%
    03:00 +16°C° 0 mm 2 m/s 763 mmHg 58%
    04:00 +15°C° 0 mm 2 m/s 763 mmHg 59%
    05:00 +15°C° 0 mm 2 m/s 763 mmHg 61%
    06:00 +15°C° 0 mm 2 m/s 763 mmHg 62%
    07:00 +16°C° 0 mm 2 m/s 763 mmHg 62%
    08:00 +17°C° 0 mm 2 m/s 764 mmHg 61%
    09:00 +18°C° 0 mm 2 m/s 764 mmHg 61%
    10:00 +20°C° 0 mm 3 m/s 764 mmHg 56%
    11:00 +21°C° 0 mm 3 m/s 764 mmHg 52%
    12:00 +24°C° 0 mm 3 m/s 764 mmHg 47%
    13:00 +24°C° 0 mm 3 m/s 763 mmHg 48%
    14:00 +24°C° 0 mm 3 m/s 763 mmHg 49%
    15:00 +24°C° 0 mm 3 m/s 763 mmHg 50%
    16:00 +21°C° 0 mm 3 m/s 763 mmHg 56%
    17:00 +19°C° 0 mm 3 m/s 763 mmHg 62%
    18:00 +18°C° 0 mm 2 m/s 763 mmHg 67%
    19:00 +17°C° 0 mm 2 m/s 763 mmHg 66%
    20:00 +17°C° 0 mm 2 m/s 763 mmHg 65%
    21:00 +17°C° 0 mm 2 m/s 764 mmHg 64%
    22:00 +16°C° 0 mm 2 m/s 764 mmHg 64%
    23:00 +16°C° 0 mm 2 m/s 763 mmHg 64%
    Voir plus